Location: Pedimozza
(42.0500°N, 9.3500°E)
Time: 04:18:26
(UTC+00:00)

Cosmos 1697 Rocket - Pass Details

Date: 19 August 2019
Orbit: 831 x 845 km, 71.0° (Epoch: 21 September)

Event Time Altitude Azimuth Distance (km) Brightness Sun altitude
Rises 21:10:04 0° 337° (NNW) 3,412 7.0 -27.0°
Reaches altitude 10° 21:12:32 10° 340° (NNW) 2,474 6.0 -27.3°
Enters shadow 21:18:05 72° 52° (NE) 890 2.7 -27.9°
